This is the latest recevied weather packets stored in our database for station/object KO5MO-11. If no packets are shown the sender has not sent any weather packets the latest 10 day(s).
| Time | Temp. | Humidity | Pressure | Rain* | Wind** | Luminosity | Snow |
|---|---|---|---|---|---|---|---|
| 1777236102 | 31.11° C | 26% | 1008.6 hPa | - | - | - | - |
| 1777235802 | 31.11° C | 25% | 1008.7 hPa | - | - | - | - |
| 1777235502 | 31.11° C | 25% | 1008.7 hPa | - | - | - | - |
| 1777235202 | 31.11° C | 27% | 1008.7 hPa | - | - | - | - |
| 1777234902 | 31.11° C | 24% | 1008.8 hPa | - | - | - | - |
| 1777234602 | 31.11° C | 25% | 1008.7 hPa | - | - | - | - |
| 1777234302 | 31.11° C | 26% | 1008.7 hPa | - | - | - | - |
| 1777234002 | 31.11° C | 26% | 1008.5 hPa | - | - | - | - |
| 1777233702 | 31.11° C | 26% | 1008.7 hPa | - | - | - | - |
| 1777233402 | 31.11° C | 25% | 1008.7 hPa | - | - | - | - |
| 1777233102 | 31.11° C | 25% | 1008.8 hPa | - | - | - | - |
| 1777232802 | 31.11° C | 26% | 1008.9 hPa | - | - | - | - |
| 1777232502 | 31.11° C | 27% | 1008.9 hPa | - | - | - | - |
| 1777232202 | 31.11° C | 28% | 1009 hPa | - | - | - | - |
| 1777231902 | 30.56° C | 25% | 1009 hPa | - | - | - | - |
| 1777231602 | 31.67° C | 25% | 1009.1 hPa | - | - | - | - |
| 1777231302 | 31.11° C | 26% | 1009.1 hPa | - | - | - | - |
| 1777231002 | 31.11° C | 27% | 1009.2 hPa | - | - | - | - |
| 1777230702 | 31.11° C | 27% | 1009.1 hPa | - | - | - | - |
| 1777230402 | 30.56° C | 29% | 1009.2 hPa | - | - | - | - |
| 1777230102 | 30.56° C | 25% | 1009.3 hPa | - | - | - | - |
| 1777229802 | 30.56° C | 25% | 1009.2 hPa | - | - | - | - |
| 1777229502 | 30.56° C | 25% | 1009.3 hPa | - | - | - | - |
| 1777229202 | 31.11° C | 26% | 1009.3 hPa | - | - | - | - |
| 1777228902 | 30.56° C | 25% | 1009.4 hPa | - | - | - | - |
* Rain since midnight (hover to see other rain measurements)
** Current wind speed in m/s (hover to see current wind gust speed)